Location: Harwich
(41.6860°N, 70.0760°W)
Time: 00:00:04
(UTC-04:00)

N. Korean satellite - Pass Details

Date: 07 August 2021
Orbit: 449 x 498 km, 97.3° (Epoch: 25 September)

Event Time Altitude Azimuth Distance (km) Brightness Sun altitude
Rises 04:58:39 0° 33° (NNE) 2,527 11.5 -7.9°
Reaches altitude 10° 05:01:37 10° 61° (ENE) 1,629 11.0 -7.4°
Maximum altitude 05:03:25 13° 92° (E) 1,418 9.9 -7.1°
Drops below altitude 10° 05:05:11 10° 123° (ESE) 1,607 9.6 -6.8°
Sets 05:08:02 0° 151° (SSE) 2,452 10.2 -6.4°
